When you browse on this site, cookies collect data to enhance your experience and personalize the content and advertising you see.
Visit our Privacy Policy to learn more. By continuing to use the site, you agree to this use of cookies and data.
  • En España
  • Lista de países
  • Para 7 días
  • Temperatura del agua
  • Mapa Satelital
  • El tiempo en el mapa
  • Informadores
  • user-avatar
    Iniciar sesión

    Tiempo cada hora Kruhy

    Hoy, 23 Mayo, Jueves

    Tiempo Temperatura Precipitaciones Viento Presión Humedad
    00:00 +18°C° 0 mm 1 mps 744 mmHg 78%
    01:00 +16°C° 0 mm 1 mps 744 mmHg 80%
    02:00 +15°C° 0 mm 1 mps 744 mmHg 84%
    03:00 +15°C° 0.1 mm 1 mps 744 mmHg 86%
    04:00 +15°C° 0.1 mm 1 mps 744 mmHg 88%
    05:00 +15°C° 0.1 mm 1 mps 744 mmHg 90%
    06:00 +18°C° 0 mm 1 mps 744 mmHg 84%
    07:00 +19°C° 0 mm 1 mps 744 mmHg 78%
    08:00 +19°C° 0 mm 0 mps 744 mmHg 71%
    09:00 +22°C° 0 mm 1 mps 744 mmHg 65%
    10:00 +24°C° 0 mm 1 mps 744 mmHg 59%
    11:00 +25°C° 0 mm 1 mps 744 mmHg 52%
    12:00 +26°C° 0 mm 1 mps 744 mmHg 49%
    13:00 +27°C° 0 mm 1 mps 744 mmHg 47%
    14:00 +27°C° 0 mm 1 mps 744 mmHg 44%
    15:00 +27°C° 0 mm 1 mps 744 mmHg 45%
    16:00 +27°C° 0 mm 1 mps 744 mmHg 46%
    17:00 +26°C° 0 mm 1 mps 744 mmHg 47%
    18:00 +24°C° 0 mm 1 mps 744 mmHg 53%
    19:00 +23°C° 0 mm 1 mps 744 mmHg 60%
    20:00 +21°C° 0 mm 1 mps 744 mmHg 66%
    21:00 +20°C° 0.1 mm 1 mps 744 mmHg 71%
    22:00 +19°C° 0.1 mm 1 mps 745 mmHg 76%
    23:00 +18°C° 0.1 mm 1 mps 745 mmHg 80%

    Mañana, 24 Mayo, Viernes

    Tiempo Temperatura Precipitaciones Viento Presión Humedad
    00:00 +18°C° 0.2 mm 1 mps 745 mmHg 82%
    01:00 +18°C° 0.2 mm 1 mps 745 mmHg 84%
    02:00 +16°C° 0.2 mm 1 mps 745 mmHg 87%
    03:00 +16°C° 0.3 mm 1 mps 745 mmHg 86%
    04:00 +16°C° 0.3 mm 1 mps 745 mmHg 86%
    05:00 +16°C° 0.3 mm 0 mps 745 mmHg 86%
    06:00 +19°C° 0.2 mm 1 mps 745 mmHg 81%
    07:00 +21°C° 0.2 mm 1 mps 745 mmHg 75%
    08:00 +23°C° 0.2 mm 1 mps 745 mmHg 70%
    09:00 +24°C° 0.4 mm 1 mps 745 mmHg 62%
    10:00 +26°C° 0.4 mm 1 mps 745 mmHg 54%
    11:00 +27°C° 0.4 mm 1 mps 745 mmHg 46%
    12:00 +27°C° 0 mm 1 mps 745 mmHg 47%
    13:00 +27°C° 0 mm 1 mps 745 mmHg 47%
    14:00 +27°C° 0 mm 2 mps 745 mmHg 47%
    15:00 +26°C° 0 mm 2 mps 744 mmHg 50%
    16:00 +26°C° 0 mm 2 mps 744 mmHg 54%
    17:00 +25°C° 0 mm 2 mps 744 mmHg 57%
    18:00 +24°C° 0 mm 2 mps 744 mmHg 62%
    19:00 +22°C° 0 mm 1 mps 744 mmHg 68%
    20:00 +20°C° 0 mm 1 mps 744 mmHg 73%
    21:00 +18°C° 0 mm 0 mps 744 mmHg 74%
    22:00 +17°C° 0 mm 0 mps 744 mmHg 75%
    23:00 +17°C° 0 mm 0 mps 744 mmHg 76%

    Pasado mañana, 25 Mayo, Sábado

    Tiempo Temperatura Precipitaciones Viento Presión Humedad
    00:00 +16°C° 0 mm 0 mps 744 mmHg 78%
    01:00 +16°C° 0 mm 0 mps 743 mmHg 80%
    02:00 +15°C° 0 mm 0 mps 743 mmHg 82%
    03:00 +15°C° 0 mm 0 mps 743 mmHg 83%
    04:00 +16°C° 0 mm 1 mps 743 mmHg 85%
    05:00 +16°C° 0 mm 1 mps 743 mmHg 86%
    06:00 +19°C° 0 mm 1 mps 743 mmHg 79%
    07:00 +19°C° 0 mm 0 mps 743 mmHg 73%
    08:00 +21°C° 0 mm 0 mps 743 mmHg 66%
    09:00 +23°C° 0.1 mm 0 mps 743 mmHg 60%
    10:00 +24°C° 0.1 mm 0 mps 743 mmHg 54%
    11:00 +26°C° 0.1 mm 0 mps 742 mmHg 49%
    12:00 +25°C° 0 mm 0 mps 742 mmHg 49%
    13:00 +27°C° 0 mm 1 mps 742 mmHg 49%
    14:00 +27°C° 0 mm 1 mps 742 mmHg 49%
    15:00 +26°C° 0.6 mm 2 mps 742 mmHg 54%
    16:00 +25°C° 0.6 mm 2 mps 742 mmHg 59%
    17:00 +24°C° 0.6 mm 3 mps 741 mmHg 64%
    18:00 +22°C° 0.9 mm 3 mps 742 mmHg 70%
    19:00 +21°C° 0.9 mm 2 mps 742 mmHg 76%
    20:00 +19°C° 0.9 mm 2 mps 742 mmHg 81%
    21:00 +18°C° 0.2 mm 2 mps 742 mmHg 84%
    22:00 +18°C° 0.2 mm 3 mps 742 mmHg 87%
    23:00 +17°C° 0.2 mm 3 mps 742 mmHg 90%

    26 Mayo, Domingo

    Tiempo Temperatura Precipitaciones Viento Presión Humedad
    00:00 +17°C° 0 mm 3 mps 743 mmHg 90%
    01:00 +16°C° 0 mm 3 mps 743 mmHg 91%
    02:00 +16°C° 0 mm 3 mps 743 mmHg 91%
    03:00 +14°C° 0 mm 3 mps 743 mmHg 90%
    04:00 +14°C° 0 mm 3 mps 744 mmHg 89%
    05:00 +13°C° 0 mm 3 mps 744 mmHg 89%
    06:00 +16°C° 0 mm 3 mps 744 mmHg 84%
    07:00 +17°C° 0 mm 3 mps 745 mmHg 79%
    08:00 +19°C° 0 mm 3 mps 745 mmHg 74%
    09:00 +20°C° 0 mm 4 mps 745 mmHg 67%
    10:00 +21°C° 0 mm 4 mps 745 mmHg 61%
    11:00 +22°C° 0 mm 4 mps 745 mmHg 55%
    12:00 +22°C° 0 mm 4 mps 745 mmHg 53%
    13:00 +23°C° 0 mm 5 mps 745 mmHg 51%
    14:00 +23°C° 0 mm 5 mps 745 mmHg 50%
    15:00 +23°C° 0 mm 5 mps 745 mmHg 51%
    16:00 +23°C° 0 mm 5 mps 745 mmHg 52%
    17:00 +22°C° 0 mm 4 mps 745 mmHg 53%
    18:00 +21°C° 0 mm 4 mps 745 mmHg 59%
    19:00 +19°C° 0 mm 3 mps 745 mmHg 65%
    20:00 +18°C° 0 mm 3 mps 746 mmHg 71%
    21:00 +17°C° 0 mm 3 mps 746 mmHg 74%
    22:00 +16°C° 0 mm 3 mps 746 mmHg 77%
    23:00 +14°C° 0 mm 3 mps 746 mmHg 80%

    27 Mayo, Lunes

    Tiempo Temperatura Precipitaciones Viento Presión Humedad
    00:00 +14°C° 0 mm 3 mps 746 mmHg 83%
    01:00 +14°C° 0 mm 3 mps 747 mmHg 86%
    02:00 +15°C° 0 mm 2 mps 747 mmHg 88%
    03:00 +15°C° 0 mm 2 mps 747 mmHg 90%
    04:00 +15°C° 0 mm 2 mps 747 mmHg 91%
    05:00 +15°C° 0 mm 2 mps 747 mmHg 93%
    06:00 +16°C° 0 mm 2 mps 747 mmHg 84%
    07:00 +18°C° 0 mm 2 mps 748 mmHg 76%
    08:00 +20°C° 0 mm 2 mps 748 mmHg 68%
    09:00 +21°C° 0 mm 2 mps 748 mmHg 63%
    10:00 +23°C° 0 mm 2 mps 748 mmHg 59%
    11:00 +24°C° 0 mm 2 mps 748 mmHg 54%
    12:00 +25°C° 0.1 mm 2 mps 748 mmHg 55%
    13:00 +25°C° 0.1 mm 2 mps 748 mmHg 55%
    14:00 +26°C° 0.1 mm 2 mps 748 mmHg 55%
    15:00 +26°C° 0.3 mm 2 mps 748 mmHg 57%
    16:00 +26°C° 0.3 mm 2 mps 748 mmHg 59%
    17:00 +26°C° 0.3 mm 2 mps 748 mmHg 61%
    18:00 +24°C° 0 mm 2 mps 748 mmHg 67%
    19:00 +23°C° 0 mm 2 mps 748 mmHg 74%
    20:00 +20°C° 0 mm 2 mps 748 mmHg 80%
    21:00 +20°C° 0 mm 2 mps 748 mmHg 84%
    22:00 +19°C° 0 mm 2 mps 748 mmHg 87%
    23:00 +19°C° 0 mm 2 mps 748 mmHg 91%

    28 Mayo, Martes

    Tiempo Temperatura Precipitaciones Viento Presión Humedad
    00:00 +19°C° 0 mm 3 mps 748 mmHg 88%
    01:00 +19°C° 0 mm 3 mps 748 mmHg 85%
    02:00 +19°C° 0 mm 3 mps 748 mmHg 82%
    03:00 +18°C° 0 mm 3 mps 748 mmHg 80%
    04:00 +18°C° 0 mm 4 mps 748 mmHg 79%
    05:00 +17°C° 0 mm 4 mps 748 mmHg 77%
    06:00 +17°C° 0 mm 5 mps 748 mmHg 72%
    07:00 +20°C° 0 mm 5 mps 747 mmHg 68%
    08:00 +21°C° 0 mm 6 mps 747 mmHg 63%
    09:00 +22°C° 0 mm 7 mps 747 mmHg 59%
    10:00 +24°C° 0 mm 7 mps 747 mmHg 55%
    11:00 +26°C° 0 mm 8 mps 747 mmHg 51%
    12:00 +27°C° 0 mm 8 mps 747 mmHg 50%
    13:00 +27°C° 0 mm 8 mps 746 mmHg 50%
    14:00 +28°C° 0 mm 8 mps 746 mmHg 50%
    15:00 +28°C° 0 mm 7 mps 746 mmHg 53%
    16:00 +28°C° 0 mm 7 mps 746 mmHg 55%
    17:00 +27°C° 0 mm 6 mps 745 mmHg 58%
    18:00 +26°C° 0 mm 6 mps 745 mmHg 61%
    19:00 +25°C° 0 mm 5 mps 745 mmHg 65%
    20:00 +23°C° 0 mm 4 mps 745 mmHg 68%
    21:00 +22°C° 0 mm 4 mps 745 mmHg 68%
    22:00 +22°C° 0 mm 4 mps 745 mmHg 68%
    23:00 +21°C° 0 mm 4 mps 745 mmHg 68%
    Mostrar más